Cumberland, WI

2:29 AM CDT on October 17, 2017 (GMT -0500)
Cumberland Municipal

Weather History for KUBE - April, 2013

Change the Weather History Date:

Friday, April 19, 2013

  Actual Average (KRPD) Record (KRPD)
Temperature  
Mean Temperature 28 °F -  
Max Temperature 32 °F 54 °F 69 °F (2005)
Min Temperature 23 °F 34 °F 24 °F (2013)
Degree Days  
Heating Degree Days 38    
Moisture  
Dew Point 23 °F    
Average Humidity 77    
Maximum Humidity 93    
Minimum Humidity 64    
Precipitation  
Precipitation 0.00 in - - ()
Sea Level Pressure  
Sea Level Pressure 29.58 in    
Wind  
Wind Speed 20 mph (NNW)    
Max Wind Speed 28 mph    
Max Gust Speed 39 mph    
Visibility 5 miles    
Events Snow    
Averages and records for this station are not official NWS values.
T = Trace of Precipitation, MM = Missing Value Source: NWS Daily Summary

Daily Weather History Graph

Daily Weather History Graph

Search for Another Location

Airport or City:

Trip Planner

Search our weather history database for the weather conditions in past years. The results will help you decide how hot, cold, wet, or windy it might be!

Date:

Astronomy

Apr. 19, 2013 Rise Set
Actual Time 6:15 AM CDT 7:59 PM CDT
Civil Twilight 5:43 AM CDT 8:31 PM CDT
Nautical Twilight 5:05 AM CDT 9:09 PM CDT
Astronomical Twilight 4:23 AM CDT 9:51 PM CDT
Moon 1:26 PM CDT (4/19) 2:49 AM CDT (4/19)
Length of Visible Light 14h 47m
Length of Day
13h 44m
First Quarter, 62% of the Moon is Illuminated
Apr 19
First Quarter
Apr 25
Full
May 2
Last Quarter
May 9
New
May 17
First Quarter

Hourly Weather History & Observations

Time (CDT) Temp. Windchill Dew Point Humidity Pressure Visibility Wind Dir Wind Speed Gust Speed Precip Events Conditions
12:15 AM 30.2 °F 17.8 °F 28.4 °F 93% 29.34 in 2.0 mi NNW 19.6 mph 28.8 mph N/A Snow Light Snow
12:35 AM 30.2 °F 16.5 °F 28.4 °F 93% 29.35 in 2.5 mi North 24.2 mph 31.1 mph N/A Snow Light Snow
12:55 AM 30.2 °F 18.1 °F 28.4 °F 93% 29.35 in 3.0 mi NNW 18.4 mph 28.8 mph N/A Snow Light Snow
1:15 AM 30.2 °F 17.4 °F 28.4 °F 93% 29.34 in 2.5 mi NNW 20.7 mph 25.3 mph N/A Snow Light Snow
1:35 AM 30.2 °F 16.8 °F 28.4 °F 93% 29.34 in 2.5 mi NNW 23.0 mph 27.6 mph N/A Snow Light Snow
1:55 AM 30.2 °F 16.5 °F 28.4 °F 93% 29.33 in 1.2 mi NNW 24.2 mph 33.4 mph N/A Snow Light Snow
2:15 AM 30.2 °F 17.4 °F 28.4 °F 93% 29.33 in 0.8 mi NNW 20.7 mph 27.6 mph N/A Snow Light Snow
2:35 AM 30.2 °F 16.8 °F 28.4 °F 93% 29.33 in 1.2 mi NNW 23.0 mph 33.4 mph N/A Snow Light Snow
2:55 AM 30.2 °F 17.1 °F 28.4 °F 93% 29.33 in 1.8 mi NNW 21.9 mph 33.4 mph N/A Snow Light Snow
3:15 AM 30.2 °F 16.8 °F 28.4 °F 93% 29.33 in 1.0 mi NNW 23.0 mph 33.4 mph N/A Snow Light Snow
3:35 AM 30.2 °F 17.1 °F 28.4 °F 93% 29.34 in 2.0 mi NNW 21.9 mph 27.6 mph N/A Snow Light Snow
3:55 AM 30.2 °F 16.2 °F 26.6 °F 86% 29.34 in 2.0 mi NNW 25.3 mph 32.2 mph N/A Snow Light Snow
4:15 AM 30.2 °F 17.1 °F 26.6 °F 86% 29.35 in 1.2 mi NNW 21.9 mph 31.1 mph N/A Snow Light Snow
4:35 AM 28.4 °F 14.7 °F 26.6 °F 93% 29.35 in 1.8 mi NNW 21.9 mph 29.9 mph N/A Snow Light Snow
4:55 AM 28.4 °F 14.7 °F 26.6 °F 93% 29.36 in 1.8 mi NNW 21.9 mph 28.8 mph N/A Snow Light Snow
5:15 AM 28.4 °F 15.8 °F 26.6 °F 93% 29.37 in 1.8 mi NNW 18.4 mph 28.8 mph N/A Snow Light Snow
5:55 AM 28.4 °F 14.4 °F 26.6 °F 93% 29.38 in 2.0 mi NNW 23.0 mph 33.4 mph N/A Snow Light Snow
6:15 AM 28.4 °F 15.4 °F 26.6 °F 93% 29.39 in 1.8 mi NNW 19.6 mph 29.9 mph N/A Snow Light Snow
6:35 AM 28.4 °F 15.8 °F 24.8 °F 86% 29.41 in 4.0 mi NNW 18.4 mph 27.6 mph N/A Snow Light Snow
6:55 AM 28.4 °F 14.7 °F 24.8 °F 86% 29.42 in 4.0 mi NNW 21.9 mph 27.6 mph N/A Snow Light Snow
7:15 AM 28.4 °F 15.4 °F 23.0 °F 80% 29.42 in 5.0 mi North 19.6 mph 31.1 mph N/A   Overcast
7:35 AM 28.4 °F 15.1 °F 23.0 °F 80% 29.43 in 5.0 mi NW 20.7 mph 26.5 mph N/A   Overcast
7:55 AM 28.4 °F 15.1 °F 23.0 °F 80% 29.44 in 4.0 mi NNW 20.7 mph 27.6 mph N/A Snow Light Snow
8:15 AM 28.4 °F 13.8 °F 23.0 °F 80% 29.44 in 7.0 mi NNW 25.3 mph 32.2 mph N/A   Overcast
8:35 AM 28.4 °F 16.2 °F 23.0 °F 80% 29.44 in 5.0 mi NNW 17.3 mph - N/A Snow Light Snow
8:55 AM 28.4 °F 16.2 °F 21.2 °F 74% 29.45 in 4.0 mi North 17.3 mph 28.8 mph N/A Snow Light Snow
9:15 AM 28.4 °F 15.4 °F 23.0 °F 80% 29.46 in 7.0 mi NNW 19.6 mph 29.9 mph N/A   Overcast
9:55 AM 28.4 °F 17.0 °F 21.2 °F 74% 29.48 in 5.0 mi North 15.0 mph 29.9 mph N/A   Haze
10:15 AM 28.4 °F 14.7 °F 21.2 °F 74% 29.49 in 3.0 mi NNW 21.9 mph 26.5 mph N/A Snow Light Snow
10:35 AM 28.4 °F 14.7 °F 21.2 °F 74% 29.50 in 5.0 mi NNW 21.9 mph 31.1 mph N/A Snow Light Snow
10:55 AM 28.4 °F 13.5 °F 21.2 °F 74% 29.51 in 2.5 mi NNW 26.5 mph 31.1 mph N/A Snow Light Snow
11:15 AM 28.4 °F 14.4 °F 21.2 °F 74% 29.52 in 2.5 mi NNW 23.0 mph 31.1 mph N/A Snow Light Snow
11:35 AM 28.4 °F 14.1 °F 21.2 °F 74% 29.53 in 5.0 mi NNW 24.2 mph 32.2 mph N/A   Haze
11:55 AM 30.2 °F 17.4 °F 21.2 °F 69% 29.53 in 7.0 mi NNW 20.7 mph 28.8 mph N/A   Overcast
12:15 PM 30.2 °F 17.8 °F 21.2 °F 69% 29.54 in 7.0 mi NW 19.6 mph 28.8 mph N/A Snow Light Snow
12:35 PM 30.2 °F 17.8 °F 21.2 °F 69% 29.55 in 7.0 mi NW 19.6 mph 25.3 mph N/A Snow Light Snow
12:55 PM 30.2 °F 16.8 °F 23.0 °F 75% 29.56 in 2.5 mi NW 23.0 mph 29.9 mph N/A Snow Light Snow
1:15 PM 30.2 °F 15.7 °F 23.0 °F 75% 29.56 in 2.5 mi NW 27.6 mph 38.0 mph N/A Snow Light Snow
1:35 PM 30.2 °F 18.5 °F 23.0 °F 75% 29.58 in 4.0 mi NW 17.3 mph 27.6 mph N/A Snow Light Snow
1:55 PM 32.0 °F 19.2 °F 23.0 °F 69% 29.58 in 4.0 mi NNW 23.0 mph 28.8 mph N/A   Haze
2:15 PM 32.0 °F 19.2 °F 21.2 °F 64% 29.59 in 10.0 mi NW 23.0 mph 28.8 mph N/A   Overcast
2:35 PM 32.0 °F 20.1 °F 23.0 °F 69% 29.61 in 7.0 mi NNW 19.6 mph 31.1 mph N/A   Overcast
2:55 PM 30.2 °F 17.8 °F 23.0 °F 75% 29.62 in 1.2 mi NW 19.6 mph 31.1 mph N/A Snow Light Snow
3:15 PM 32.0 °F 19.5 °F 23.0 °F 69% 29.64 in 5.0 mi NW 21.9 mph 31.1 mph N/A Snow Light Snow
3:35 PM 30.2 °F 16.8 °F 24.8 °F 80% 29.65 in 1.5 mi NNW 23.0 mph 34.5 mph N/A Snow Light Snow
3:55 PM 30.2 °F 17.1 °F 23.0 °F 75% 29.66 in 0.5 mi NNW 21.9 mph 33.4 mph N/A Snow Light Snow
4:15 PM 30.2 °F 17.1 °F 23.0 °F 75% 29.68 in 0.5 mi NNW 21.9 mph 39.1 mph N/A Snow Light Snow
4:35 PM 30.2 °F 18.1 °F 23.0 °F 75% 29.69 in 2.5 mi NW 18.4 mph 25.3 mph N/A Snow Light Snow
4:55 PM 32.0 °F 19.8 °F 23.0 °F 69% 29.70 in 5.0 mi North 20.7 mph 28.8 mph N/A Snow Light Snow
5:15 PM 30.2 °F 18.5 °F 24.8 °F 80% 29.72 in 4.0 mi NW 17.3 mph - N/A Snow Light Snow
5:35 PM 30.2 °F 18.1 °F 21.2 °F 69% 29.73 in 7.0 mi North 18.4 mph 26.5 mph N/A Snow Light Snow
5:55 PM 32.0 °F 20.5 °F 23.0 °F 69% 29.75 in 10.0 mi North 18.4 mph 24.2 mph N/A   Mostly Cloudy
6:15 PM 30.2 °F 19.3 °F 23.0 °F 75% 29.77 in 5.0 mi NNW 15.0 mph 24.2 mph N/A Snow Light Snow
6:35 PM 30.2 °F 17.8 °F 21.2 °F 69% 29.78 in 10.0 mi NNW 19.6 mph 25.3 mph N/A   Mostly Cloudy
6:55 PM 30.2 °F 19.8 °F 19.4 °F 64% 29.79 in 10.0 mi North 13.8 mph 25.3 mph N/A   Scattered Clouds
7:15 PM 30.2 °F 19.8 °F 19.4 °F 64% 29.80 in 10.0 mi North 13.8 mph - N/A   Mostly Cloudy
7:35 PM 30.2 °F 19.8 °F 21.2 °F 69% 29.81 in 7.0 mi NNW 13.8 mph 18.4 mph N/A   Mostly Cloudy
7:55 PM 30.2 °F 19.8 °F 19.4 °F 64% 29.82 in 10.0 mi NNW 13.8 mph - N/A   Mostly Cloudy
8:15 PM 30.2 °F 21.3 °F 19.4 °F 64% 29.83 in 10.0 mi NNW 10.4 mph - N/A   Scattered Clouds
8:35 PM 28.4 °F 19.7 °F 19.4 °F 69% 29.84 in 10.0 mi NNW 9.2 mph - N/A   Clear
8:55 PM 28.4 °F 21.2 °F 17.6 °F 64% 29.86 in 10.0 mi NNW 6.9 mph - N/A   Clear
9:15 PM 26.6 °F 20.0 °F 17.6 °F 69% 29.87 in 10.0 mi NNW 5.8 mph - N/A   Clear
9:35 PM 26.6 °F 20.0 °F 17.6 °F 69% 29.88 in 10.0 mi NNW 5.8 mph - N/A   Clear
9:55 PM 26.6 °F 20.0 °F 17.6 °F 69% 29.89 in 10.0 mi NW 5.8 mph - N/A   Clear
10:15 PM 24.8 °F 19.1 °F 15.8 °F 69% 29.90 in 10.0 mi NNW 4.6 mph - N/A   Clear
10:35 PM 23.0 °F 17.0 °F 14.0 °F 68% 29.91 in 10.0 mi NNW 4.6 mph - N/A   Clear
10:55 PM 26.6 °F - 17.6 °F 69% 29.91 in 10.0 mi Calm Calm - N/A   Clear
11:15 PM 24.8 °F 19.1 °F 15.8 °F 69% 29.92 in 10.0 mi NW 4.6 mph - N/A   Clear
11:35 PM 23.0 °F 17.0 °F 14.0 °F 68% 29.93 in 10.0 mi NW 4.6 mph - N/A   Clear
11:55 PM 23.0 °F 17.0 °F 14.0 °F 68% 29.93 in 10.0 mi West 4.6 mph - N/A   Clear